When you browse on this site, cookies collect data to enhance your experience and personalize the content and advertising you see.
Visit our Privacy Policy to learn more. By continuing to use the site, you agree to this use of cookies and data.
  • In Österreich
  • Länderverzeichnis
  • Für 7 Tage
  • Wassertemperatur
  • Wetterkarte
  • News
  • Widgets
  • user-avatar
    Anmelden

    Stündliche Wetter Sydney

    Heute, 26 Februar, Mittwoch

    Zeit Temperatur Niederschläge Wind Luftdruck Luftfeuchtigkeit
    00:00 +25°C° 0 mm 4 m/S 757 mmHg 73%
    01:00 +25°C° 0 mm 4 m/S 756 mmHg 74%
    02:00 +23°C° 0 mm 4 m/S 756 mmHg 74%
    03:00 +24°C° 0 mm 3 m/S 755 mmHg 75%
    04:00 +24°C° 0 mm 3 m/S 755 mmHg 68%
    05:00 +24°C° 0 mm 3 m/S 755 mmHg 67%
    06:00 +25°C° 0 mm 3 m/S 755 mmHg 66%
    07:00 +25°C° 0 mm 4 m/S 755 mmHg 65%
    08:00 +27°C° 0 mm 4 m/S 755 mmHg 58%
    09:00 +30°C° 0 mm 4 m/S 754 mmHg 51%
    10:00 +33°C° 0 mm 3 m/S 754 mmHg 43%
    11:00 +35°C° 0 mm 3 m/S 753 mmHg 39%
    12:00 +36°C° 0 mm 4 m/S 753 mmHg 36%
    13:00 +37°C° 0 mm 4 m/S 752 mmHg 32%
    14:00 +36°C° 0.1 mm 4 m/S 752 mmHg 33%
    15:00 +36°C° 0.1 mm 3 m/S 751 mmHg 34%
    16:00 +34°C° 0 mm 5 m/S 751 mmHg 40%
    17:00 +32°C° 0 mm 8 m/S 752 mmHg 49%
    18:00 +28°C° 0 mm 10 m/S 753 mmHg 58%
    19:00 +24°C° 0 mm 13 m/S 754 mmHg 67%
    20:00 +23°C° 0 mm 11 m/S 755 mmHg 68%
    21:00 +22°C° 0 mm 10 m/S 755 mmHg 70%
    22:00 +21°C° 0 mm 9 m/S 756 mmHg 72%
    23:00 +21°C° 0 mm 8 m/S 756 mmHg 69%

    Morgen, 27 Februar, Donnerstag

    Zeit Temperatur Niederschläge Wind Luftdruck Luftfeuchtigkeit
    00:00 +21°C° 0 mm 7 m/S 757 mmHg 67%
    01:00 +21°C° 0 mm 6 m/S 757 mmHg 64%
    02:00 +20°C° 0 mm 6 m/S 757 mmHg 62%
    03:00 +20°C° 0 mm 5 m/S 757 mmHg 61%
    04:00 +20°C° 0 mm 5 m/S 757 mmHg 59%
    05:00 +20°C° 0 mm 4 m/S 757 mmHg 59%
    06:00 +21°C° 0 mm 3 m/S 758 mmHg 59%
    07:00 +21°C° 0 mm 2 m/S 758 mmHg 59%
    08:00 +23°C° 0 mm 2 m/S 758 mmHg 55%
    09:00 +25°C° 0 mm 2 m/S 758 mmHg 51%
    10:00 +26°C° 0 mm 2 m/S 757 mmHg 48%
    11:00 +26°C° 0 mm 2 m/S 757 mmHg 49%
    12:00 +27°C° 0 mm 3 m/S 756 mmHg 49%
    13:00 +27°C° 0 mm 4 m/S 756 mmHg 50%
    14:00 +27°C° 0 mm 4 m/S 755 mmHg 52%
    15:00 +27°C° 0 mm 5 m/S 754 mmHg 54%
    16:00 +27°C° 0 mm 5 m/S 754 mmHg 56%
    17:00 +25°C° 0 mm 5 m/S 754 mmHg 62%
    18:00 +23°C° 0 mm 5 m/S 754 mmHg 69%
    19:00 +22°C° 0 mm 5 m/S 754 mmHg 75%
    20:00 +22°C° 0 mm 4 m/S 755 mmHg 78%
    21:00 +22°C° 0 mm 4 m/S 755 mmHg 81%
    22:00 +21°C° 0 mm 3 m/S 756 mmHg 84%
    23:00 +21°C° 0 mm 3 m/S 756 mmHg 85%

    übermorgen, 28 Februar, Freitag

    Zeit Temperatur Niederschläge Wind Luftdruck Luftfeuchtigkeit
    00:00 +20°C° 0 mm 3 m/S 755 mmHg 87%
    01:00 +20°C° 0 mm 3 m/S 755 mmHg 88%
    02:00 +19°C° 0 mm 3 m/S 755 mmHg 84%
    03:00 +19°C° 0 mm 3 m/S 755 mmHg 80%
    04:00 +18°C° 0 mm 3 m/S 755 mmHg 76%
    05:00 +18°C° 0 mm 3 m/S 755 mmHg 64%
    06:00 +18°C° 0 mm 4 m/S 756 mmHg 53%
    07:00 +19°C° 0 mm 4 m/S 756 mmHg 41%
    08:00 +21°C° 0 mm 5 m/S 757 mmHg 37%
    09:00 +23°C° 0 mm 5 m/S 757 mmHg 32%
    10:00 +26°C° 0 mm 5 m/S 757 mmHg 27%
    11:00 +27°C° 0 mm 6 m/S 757 mmHg 35%
    12:00 +27°C° 0 mm 7 m/S 757 mmHg 43%
    13:00 +27°C° 0 mm 7 m/S 757 mmHg 51%
    14:00 +26°C° 0 mm 7 m/S 757 mmHg 53%
    15:00 +24°C° 0 mm 7 m/S 758 mmHg 56%
    16:00 +23°C° 0 mm 7 m/S 758 mmHg 58%
    17:00 +22°C° 0 mm 7 m/S 759 mmHg 63%
    18:00 +21°C° 0 mm 6 m/S 759 mmHg 68%
    19:00 +21°C° 0 mm 5 m/S 760 mmHg 72%
    20:00 +21°C° 0.1 mm 5 m/S 761 mmHg 73%
    21:00 +21°C° 0.1 mm 5 m/S 762 mmHg 73%
    22:00 +20°C° 0.1 mm 5 m/S 762 mmHg 74%
    23:00 +20°C° 0 mm 4 m/S 762 mmHg 74%

    29 Februar, Samstag

    Zeit Temperatur Niederschläge Wind Luftdruck Luftfeuchtigkeit
    00:00 +20°C° 0 mm 4 m/S 762 mmHg 74%
    01:00 +19°C° 0 mm 4 m/S 762 mmHg 74%
    02:00 +19°C° 0 mm 4 m/S 762 mmHg 73%
    03:00 +19°C° 0 mm 4 m/S 762 mmHg 72%
    04:00 +19°C° 0 mm 4 m/S 762 mmHg 71%
    05:00 +20°C° 0 mm 3 m/S 762 mmHg 71%
    06:00 +20°C° 0 mm 3 m/S 762 mmHg 70%
    07:00 +20°C° 0 mm 3 m/S 763 mmHg 70%
    08:00 +21°C° 0 mm 3 m/S 763 mmHg 65%
    09:00 +24°C° 0 mm 3 m/S 763 mmHg 60%
    10:00 +25°C° 0 mm 3 m/S 763 mmHg 56%
    11:00 +26°C° 0 mm 3 m/S 762 mmHg 54%
    12:00 +26°C° 0 mm 3 m/S 762 mmHg 53%
    13:00 +27°C° 0 mm 4 m/S 762 mmHg 52%
    14:00 +27°C° 0 mm 4 m/S 761 mmHg 55%
    15:00 +26°C° 0 mm 4 m/S 761 mmHg 57%
    16:00 +26°C° 0 mm 4 m/S 760 mmHg 60%
    17:00 +25°C° 0 mm 4 m/S 761 mmHg 65%
    18:00 +24°C° 0 mm 3 m/S 761 mmHg 71%
    19:00 +22°C° 0 mm 3 m/S 761 mmHg 76%
    20:00 +21°C° 0.1 mm 3 m/S 762 mmHg 79%
    21:00 +21°C° 0.1 mm 3 m/S 762 mmHg 82%
    22:00 +21°C° 0.1 mm 3 m/S 762 mmHg 85%
    23:00 +21°C° 0.2 mm 2 m/S 762 mmHg 84%

    1 März, Sonntag

    Zeit Temperatur Niederschläge Wind Luftdruck Luftfeuchtigkeit
    00:00 +21°C° 0.2 mm 2 m/S 761 mmHg 83%
    01:00 +21°C° 0.2 mm 2 m/S 761 mmHg 82%
    02:00 +21°C° 0.1 mm 2 m/S 761 mmHg 84%
    03:00 +20°C° 0.1 mm 2 m/S 761 mmHg 86%
    04:00 +21°C° 0.1 mm 1 m/S 760 mmHg 88%
    05:00 +22°C° 0 mm 1 m/S 761 mmHg 86%
    06:00 +22°C° 0 mm 1 m/S 761 mmHg 84%
    07:00 +23°C° 0 mm 1 m/S 761 mmHg 83%
    08:00 +24°C° 0 mm 1 m/S 761 mmHg 74%
    09:00 +26°C° 0 mm 2 m/S 761 mmHg 65%
    10:00 +28°C° 0 mm 2 m/S 761 mmHg 57%
    11:00 +29°C° 0 mm 3 m/S 760 mmHg 54%
    12:00 +30°C° 0 mm 4 m/S 760 mmHg 51%
    13:00 +30°C° 0 mm 4 m/S 759 mmHg 47%
    14:00 +30°C° 0 mm 5 m/S 759 mmHg 48%
    15:00 +30°C° 0 mm 5 m/S 758 mmHg 49%
    16:00 +29°C° 0 mm 6 m/S 757 mmHg 50%
    17:00 +28°C° 0 mm 6 m/S 758 mmHg 58%
    18:00 +26°C° 0 mm 6 m/S 758 mmHg 67%
    19:00 +24°C° 0 mm 6 m/S 758 mmHg 75%
    20:00 +23°C° 0 mm 5 m/S 758 mmHg 77%
    21:00 +23°C° 0 mm 5 m/S 758 mmHg 79%
    22:00 +22°C° 0 mm 4 m/S 758 mmHg 81%
    23:00 +22°C° 0 mm 4 m/S 758 mmHg 82%

    2 März, Montag

    Zeit Temperatur Niederschläge Wind Luftdruck Luftfeuchtigkeit
    00:00 +22°C° 0 mm 3 m/S 758 mmHg 82%
    01:00 +21°C° 0 mm 3 m/S 757 mmHg 82%
    02:00 +21°C° 0 mm 3 m/S 757 mmHg 83%
    03:00 +21°C° 0 mm 2 m/S 757 mmHg 85%
    04:00 +20°C° 0 mm 2 m/S 757 mmHg 86%
    05:00 +21°C° 0 mm 3 m/S 757 mmHg 84%
    06:00 +22°C° 0 mm 4 m/S 758 mmHg 82%
    07:00 +22°C° 0 mm 5 m/S 758 mmHg 80%
    08:00 +23°C° 0 mm 5 m/S 758 mmHg 76%
    09:00 +24°C° 0 mm 6 m/S 758 mmHg 72%
    10:00 +26°C° 0 mm 7 m/S 759 mmHg 68%
    11:00 +26°C° 0 mm 7 m/S 758 mmHg 68%
    12:00 +26°C° 0 mm 7 m/S 758 mmHg 68%
    13:00 +24°C° 0 mm 7 m/S 758 mmHg 68%
    14:00 +24°C° 0 mm 7 m/S 758 mmHg 68%
    15:00 +24°C° 0 mm 7 m/S 758 mmHg 68%
    16:00 +24°C° 0 mm 7 m/S 757 mmHg 68%
    17:00 +24°C° 0 mm 7 m/S 758 mmHg 70%
    18:00 +23°C° 0 mm 7 m/S 759 mmHg 72%
    19:00 +22°C° 0 mm 7 m/S 759 mmHg 74%
    20:00 +22°C° 0 mm 7 m/S 760 mmHg 75%
    21:00 +22°C° 0 mm 7 m/S 760 mmHg 77%
    22:00 +22°C° 0 mm 7 m/S 761 mmHg 78%
    23:00 +22°C° 0.1 mm 7 m/S 760 mmHg 79%
    Mehr zeigen